{"data":{"norad_id":69180,"intl_designator":"2026-113A","name":"SHENZHOU-23 (SZ-23)","alt_names":[],"object_type":"PAYLOAD","status":"ACTIVE","operator":null,"country":"PRC","launch_date":"2026-05-24","launch_site_code":"JSC","launch_vehicle":null,"mission":null,"orbit_class":"UNKNOWN","rcs_meters":null,"size_class":null,"mass_kg":null,"dimensions":null,"purposes":["station"],"wikipedia_slug":null,"has_3d_model":false,"image_url":null,"decayed_at":null,"tle_current":{"epoch":"2026-09-19T21:33:17.772768Z","epoch_age_seconds":66089,"freshness":"FRESH","line1":"1 69180U 26113A   26262.89812237  .00015375  00000+0  18770-3 0  9991","line2":"2 69180  41.4679 106.9413 0002586 292.0471  68.0093 15.60115363307891","mean_motion":15.60115363,"eccentricity":0.0002586,"inclination_deg":41.4679,"raan_deg":106.9413,"arg_perigee_deg":292.0471,"mean_anomaly_deg":68.0093,"bstar":0.0001877,"rev_number":30789,"period_min":92.30086659944,"perigee_km":385.57399668084,"apogee_km":389.0730928746,"semimajor_km":6765.4605447777,"source":"CELESTRAK","updated_at":"2026-09-20T09:00:28.696982Z"}}}